AFR672 LFPG-FMEE

Flight info

Callsign AFR672
Flight time N/A
Altitude 33000
Route LANVI DCT DEVDI DCT RIPUS DCT RESIA DCT LAPAB DCT LABIN DCT ELGUS DCT AIOSA DCT NOSTO DCT SALUN N705 BOPIX/N0488F350 N710 TAKRI P751 LXR M999 JDW G650 RASKA/N0496F340 G650 ULONI UG650 ASM/N0491F360 UG650 KONET/N0493F350 DCT XADOX DCT DWA UN304 MOGDU/N0487F370 UN304 APKAK/N0488F360 UN304 UVDOX/N0485F380 UN304 DENLI/N0485F370 UN304 UVENA UVENA2R
Aircraft B77W/H-SDE1E2E3FGHIJ2J3J4J5M1RWXY/LB1D1

Departure

Time 2026-05-01 12:12
Airport Charles de Gaulle International Airport (LFPG)

Arrival

Time N/A
Airport Roland Garros Airport (FMEE)
Time Latitude Longitude Altitude Speed Heading
2026-05-01 11:40 49.00634 2.58593 359 ft 0 kts 266°
2026-05-01 11:59 49.00634 2.58603 359 ft 4 kts 264°
2026-05-01 11:59 49.00640 2.58643 366 ft 4 kts 249°
2026-05-01 12:00 49.00672 2.58700 359 ft 4 kts 187°
2026-05-01 12:00 49.00681 2.58701 365 ft 0 kts 175°
2026-05-01 12:03 49.00673 2.58702 359 ft 4 kts 175°
2026-05-01 12:03 49.00612 2.58709 360 ft 13 kts 175°
2026-05-01 12:03 49.00495 2.58723 363 ft 19 kts 175°
2026-05-01 12:03 49.00366 2.58739 363 ft 19 kts 175°
2026-05-01 12:04 49.00239 2.58755 362 ft 19 kts 175°
2026-05-01 12:04 49.00118 2.58770 359 ft 12 kts 175°
2026-05-01 12:04 49.00043 2.58736 362 ft 12 kts 233°
2026-05-01 12:04 49.00026 2.58604 359 ft 16 kts 264°
2026-05-01 12:05 49.00015 2.58392 365 ft 25 kts 265°
2026-05-01 12:05 48.99987 2.57860 366 ft 25 kts 265°
2026-05-01 12:05 48.99972 2.57595 363 ft 25 kts 265°
2026-05-01 12:06 48.99958 2.57329 363 ft 25 kts 265°
2026-05-01 12:06 48.99944 2.57064 365 ft 25 kts 265°
2026-05-01 12:06 48.99930 2.56798 366 ft 25 kts 265°
2026-05-01 12:06 48.99916 2.56533 366 ft 25 kts 265°
2026-05-01 12:07 48.99903 2.56271 373 ft 25 kts 265°
2026-05-01 12:07 48.99890 2.56032 359 ft 17 kts 265°
2026-05-01 12:07 48.99901 2.55868 365 ft 13 kts 273°
2026-05-01 12:07 48.99841 2.55793 363 ft 13 kts 173°
2026-05-01 12:08 48.99753 2.55806 364 ft 12 kts 175°
2026-05-01 12:08 48.99711 2.55812 363 ft 0 kts 175°
2026-05-01 12:09 48.99704 2.55813 359 ft 4 kts 175°
2026-05-01 12:09 48.99653 2.55820 362 ft 10 kts 175°
2026-05-01 12:10 48.99611 2.55845 364 ft 6 kts 116°
2026-05-01 12:10 48.99607 2.55924 358 ft 0 kts 87°
2026-05-01 12:10 48.99610 2.56009 359 ft 21 kts 86°
2026-05-01 12:11 48.99705 2.57816 364 ft 148 kts 85°
2026-05-01 12:11 48.99802 2.59609 373 ft 193 kts 85°
2026-05-01 12:11 48.99913 2.61642 874 ft 193 kts 86°
2026-05-01 12:12 49.00021 2.63710 1365 ft 200 kts 86°
2026-05-01 12:12 49.00143 2.65843 1908 ft 203 kts 87°
2026-05-01 12:12 49.00261 2.68060 2174 ft 220 kts 86°
2026-05-01 12:12 49.00388 2.70495 2378 ft 242 kts 87°
2026-05-01 12:13 49.00521 2.73148 2723 ft 256 kts 86°
2026-05-01 12:13 49.00662 2.75905 3341 ft 264 kts 87°
2026-05-01 12:13 49.00729 2.78725 3922 ft 268 kts 96°
2026-05-01 12:13 49.00464 2.81536 4619 ft 267 kts 102°
2026-05-01 12:14 49.00119 2.84317 5346 ft 268 kts 102°
2026-05-01 12:14 48.99789 2.87118 5972 ft 270 kts 102°
2026-05-01 12:14 48.99475 2.89958 6605 ft 273 kts 102°
2026-05-01 12:14 48.99164 2.92822 7225 ft 275 kts 101°
2026-05-01 12:15 48.98859 2.95705 7848 ft 276 kts 101°
2026-05-01 12:15 48.98601 2.98576 8474 ft 278 kts 99°
2026-05-01 12:15 48.98357 3.01511 9102 ft 280 kts 99°
2026-05-01 12:15 48.98116 3.04460 9761 ft 281 kts 99°
2026-05-01 12:16 48.97872 3.07424 10343 ft 283 kts 99°
2026-05-01 12:16 48.97619 3.10453 10632 ft 298 kts 99°
2026-05-01 12:16 48.97349 3.13687 10787 ft 317 kts 99°
2026-05-01 12:16 48.97059 3.17125 10955 ft 338 kts 99°
2026-05-01 12:17 48.96750 3.20781 11148 ft 357 kts 99°
2026-05-01 12:17 48.96428 3.24597 11635 ft 368 kts 99°
2026-05-01 12:17 48.96096 3.28493 12308 ft 374 kts 99°
2026-05-01 12:17 48.95764 3.32374 13173 ft 375 kts 99°
2026-05-01 12:18 48.95425 3.36318 14036 ft 377 kts 99°
2026-05-01 12:18 48.95082 3.40295 14745 ft 381 kts 100°
2026-05-01 12:18 48.94733 3.44324 15422 ft 386 kts 100°
2026-05-01 12:18 48.94378 3.48399 16101 ft 391 kts 100°
2026-05-01 12:19 48.94017 3.52515 16777 ft 395 kts 100°
2026-05-01 12:19 48.93668 3.56698 17404 ft 402 kts 98°
2026-05-01 12:19 48.93410 3.60961 18055 ft 407 kts 97°
2026-05-01 12:19 48.93197 3.65272 18702 ft 412 kts 96°
2026-05-01 12:20 48.92990 3.69640 19333 ft 414 kts 96°
2026-05-01 12:20 48.92778 3.74026 19998 ft 416 kts 97°
2026-05-01 12:20 48.92557 3.78371 20640 ft 418 kts 97°
2026-05-01 12:20 48.92324 3.82793 21263 ft 421 kts 97°
2026-05-01 12:21 48.92083 3.87239 21856 ft 424 kts 97°
2026-05-01 12:21 48.91837 3.91718 22441 ft 426 kts 97°
2026-05-01 12:21 48.91588 3.96225 23040 ft 429 kts 97°
2026-05-01 12:21 48.91335 4.00756 23621 ft 432 kts 97°
2026-05-01 12:22 48.91080 4.05325 24139 ft 435 kts 97°
2026-05-01 12:22 48.90821 4.09917 24612 ft 437 kts 97°
2026-05-01 12:22 48.90560 4.14538 25075 ft 440 kts 97°
2026-05-01 12:22 48.90293 4.19181 25533 ft 441 kts 98°
2026-05-01 12:23 48.89763 4.23709 25851 ft 441 kts 111°
2026-05-01 12:23 48.88415 4.27850 26172 ft 437 kts 123°
2026-05-01 12:23 48.86833 4.31835 26490 ft 443 kts 122°
2026-05-01 12:23 48.85281 4.35903 26911 ft 445 kts 121°
2026-05-01 12:24 48.83750 4.40008 27295 ft 449 kts 120°
2026-05-01 12:24 48.82216 4.44171 27594 ft 454 kts 120°
2026-05-01 12:24 48.80676 4.48368 27977 ft 457 kts 120°
2026-05-01 12:24 48.79130 4.52583 28413 ft 458 kts 120°
2026-05-01 12:25 48.77578 4.56808 28815 ft 460 kts 120°
2026-05-01 12:25 48.74441 4.65315 29496 ft 465 kts 120°
2026-05-01 12:25 48.72855 4.69598 29800 ft 467 kts 120°
2026-05-01 12:26 48.71266 4.73884 30182 ft 467 kts 120°
2026-05-01 12:26 48.68109 4.82376 30888 ft 467 kts 120°
2026-05-01 12:26 48.66510 4.86667 31067 ft 470 kts 120°
2026-05-01 12:27 48.64904 4.90970 31415 ft 469 kts 120°
2026-05-01 12:27 48.61710 4.99508 32202 ft 465 kts 121°
2026-05-01 12:28 48.58517 5.08011 32833 ft 464 kts 121°
2026-05-01 12:28 48.56925 5.12244 33153 ft 464 kts 121°
2026-05-01 12:29 48.52096 5.25034 33228 ft 467 kts 121°
2026-05-01 12:29 48.47297 5.37687 33255 ft 463 kts 121°
2026-05-01 12:30 48.42489 5.50301 33254 ft 462 kts 121°
2026-05-01 12:31 48.39278 5.58693 33259 ft 463 kts 121°
2026-05-01 12:31 48.36072 5.67048 33265 ft 465 kts 121°
2026-05-01 12:32 48.32820 5.75501 33268 ft 468 kts 121°
2026-05-01 12:32 48.28228 5.88524 33274 ft 472 kts 116°
2026-05-01 12:33 48.25470 5.97492 33266 ft 473 kts 116°
2026-05-01 12:33 48.22689 6.06426 33262 ft 473 kts 116°
2026-05-01 12:34 48.19872 6.15285 33269 ft 473 kts 116°
2026-05-01 12:34 48.17052 6.24059 33269 ft 472 kts 116°
2026-05-01 12:35 48.14796 6.31053 33266 ft 472 kts 116°
2026-05-01 12:35 48.12344 6.38639 33274 ft 472 kts 117°
2026-05-01 12:36 48.09476 6.47485 33269 ft 473 kts 116°
2026-05-01 12:36 48.06598 6.56335 33276 ft 474 kts 116°
2026-05-01 12:37 48.03705 6.65204 33276 ft 475 kts 116°
2026-05-01 12:37 48.00801 6.74070 33278 ft 475 kts 117°
2026-05-01 12:38 47.97906 6.82880 33277 ft 475 kts 116°
2026-05-01 12:38 47.94985 6.91734 33272 ft 475 kts 116°
2026-05-01 12:39 47.92057 7.00585 33287 ft 475 kts 116°
2026-05-01 12:39 47.89121 7.09425 33279 ft 476 kts 116°
2026-05-01 12:40 47.86196 7.18207 33289 ft 476 kts 117°
2026-05-01 12:40 47.83246 7.27031 33279 ft 477 kts 116°
2026-05-01 12:41 47.80277 7.35881 33284 ft 478 kts 116°
2026-05-01 12:41 47.77297 7.44741 33278 ft 479 kts 116°
2026-05-01 12:42 47.74298 7.53537 33292 ft 479 kts 118°
2026-05-01 12:42 47.70568 7.61737 33302 ft 480 kts 126°
2026-05-01 12:43 47.66557 7.69661 33298 ft 480 kts 126°
2026-05-01 12:43 47.62547 7.77641 33298 ft 481 kts 125°
2026-05-01 12:44 47.58555 7.85628 33288 ft 482 kts 126°
2026-05-01 12:45 47.50590 8.01522 33285 ft 482 kts 126°
2026-05-01 12:45 47.46582 8.09481 33290 ft 482 kts 126°
2026-05-01 12:46 47.42575 8.17413 33290 ft 481 kts 126°
2026-05-01 12:46 47.38567 8.25326 33289 ft 481 kts 126°
2026-05-01 12:47 47.34553 8.33229 33308 ft 481 kts 126°
2026-05-01 12:47 47.31212 8.39791 33300 ft 481 kts 126°
2026-05-01 12:48 47.27183 8.47687 33320 ft 481 kts 126°
2026-05-01 12:48 47.23204 8.55561 33301 ft 482 kts 125°
2026-05-01 12:49 47.20340 8.61366 33320 ft 482 kts 125°
2026-05-01 12:49 47.16402 8.69367 33332 ft 483 kts 124°
2026-05-01 12:50 47.12444 8.77354 33320 ft 484 kts 124°
2026-05-01 12:50 47.08469 8.85334 33295 ft 484 kts 124°
2026-05-01 12:51 47.04478 8.93314 33303 ft 484 kts 124°
2026-05-01 12:52 46.98511 9.05205 33304 ft 485 kts 124°
2026-05-01 12:52 46.92506 9.17127 33297 ft 485 kts 124°
2026-05-01 12:53 46.86501 9.28992 33297 ft 482 kts 124°
2026-05-01 12:54 46.82505 9.36865 33290 ft 482 kts 124°
2026-05-01 12:54 46.76526 9.48596 33294 ft 482 kts 124°
2026-05-01 12:55 46.70511 9.60350 33312 ft 483 kts 124°
2026-05-01 12:56 46.66481 9.68199 33316 ft 484 kts 124°
2026-05-01 12:56 46.62442 9.76042 33339 ft 485 kts 124°
2026-05-01 12:57 46.58391 9.83886 33326 ft 484 kts 124°
2026-05-01 12:57 46.52351 9.95545 33318 ft 482 kts 124°
2026-05-01 12:58 46.48313 10.03310 33317 ft 481 kts 124°
2026-05-01 12:59 46.42511 10.15171 33321 ft 480 kts 120°
2026-05-01 12:59 46.36891 10.27116 33298 ft 480 kts 121°
2026-05-01 13:00 46.31179 10.39050 33322 ft 482 kts 121°
2026-05-01 13:01 46.25422 10.50981 33318 ft 480 kts 121°
2026-05-01 13:02 46.19699 10.62790 33324 ft 479 kts 121°